This is the latest recevied weather packets stored in our database for station/object WY1B. If no packets are shown the sender has not sent any weather packets the latest 10 day(s).
| Time | Temp. | Humidity | Pressure | Rain* | Wind** | Luminosity | Snow |
|---|---|---|---|---|---|---|---|
| 1787892266 | 35.56° C | 26% | 1003.2 hPa | 0 mm | - | 0 W/m² | - |
| 1787891961 | 35.56° C | 26% | 1003.2 hPa | 0 mm | - | 0 W/m² | - |
| 1787891657 | 35.56° C | 26% | 1003.1 hPa | 0 mm | - | 0 W/m² | - |
| 1787891353 | 35.56° C | 32% | 1003 hPa | 0 mm | - | 0 W/m² | - |
| 1787891052 | 36.11° C | 25% | 1002.9 hPa | 0 mm | - | 0 W/m² | - |
| 1787890752 | 36.11° C | 25% | 1002.8 hPa | 0 mm | - | 0 W/m² | - |
| 1787890446 | 35.56° C | 24% | 1002.8 hPa | 0 mm | - | 0 W/m² | - |
| 1787890142 | 36.11° C | 25% | 1002.9 hPa | 0 mm | - | 0 W/m² | - |
| 1787889842 | 36.11° C | 27% | 1002.7 hPa | 0 mm | - | 0 W/m² | - |
| 1787889537 | 36.11° C | 25% | 1002.6 hPa | 0 mm | - | 0 W/m² | - |
| 1787889236 | 36.11° C | 25% | 1002.7 hPa | 0 mm | - | 0 W/m² | - |
| 1787888931 | 36.67° C | 35% | 1002.6 hPa | 0 mm | - | 0 W/m² | - |
| 1787888627 | 36.67° C | 25% | 1002.4 hPa | 0 mm | - | 0 W/m² | - |
| 1787888327 | 36.67° C | 25% | 1002.5 hPa | 0 mm | - | 0 W/m² | - |
| 1787888023 | 36.67° C | 24% | 1002.3 hPa | 0 mm | - | 0 W/m² | - |
| 1787887718 | 36.67° C | 32% | 1002.5 hPa | 0 mm | - | 0 W/m² | - |
| 1787887418 | 36.67° C | 24% | 1002.1 hPa | 0 mm | - | 0 W/m² | - |
| 1787887113 | 36.67° C | 25% | 1002.1 hPa | 0 mm | - | 0 W/m² | - |
| 1787886809 | 36.67° C | 25% | 1001.9 hPa | 0 mm | - | 0 W/m² | - |
| 1787886508 | 36.67° C | 27% | 1001.8 hPa | 0 mm | - | 0 W/m² | - |
| 1787886204 | 37.22° C | 25% | 1001.9 hPa | 0 mm | - | 0 W/m² | - |
| 1787885903 | 37.22° C | 26% | 1002 hPa | 0 mm | - | 0 W/m² | - |
| 1787885601 | 37.22° C | 29% | 1001.8 hPa | 0 mm | - | 0 W/m² | - |
| 1787885300 | 37.78° C | 25% | 1001.9 hPa | 0 mm | - | 0 W/m² | - |
| 1787884995 | 37.78° C | 24% | 1001.5 hPa | 0 mm | - | 0 W/m² | - |
* Rain latest hour (hover to see other rain measurements)
** Current wind speed in m/s (hover to see current wind gust speed)